www.pogodaiklimat.ru

Погода и климат >> Архив погоды >> Австралия >> Новый Южный Уэльс >> Уилкания


ПОГОДА в Уилкании

  • Прогноз погоды в Уилкании
  • Монитор погоды в Уилкании

АРХИВ ПОГОДЫ в Уилкании

Время (UTC), дата Ветер
(напр.,м/с)
 
Видим.   Явления Облачность Т
(С)
Тd
(С)
f
(%)
Тe
(С)
Тes
(С)
Комфортность P
(гПа)
Po
(гПа)
Тmin
(С)
Tmax
(С)
R
(мм)
R24
(мм)
S
(см)
07 10.09 Ю 5 н/о н/о +18.5 -1.9 25 +18 +18 1027.2 1015.8
08 10.09 Ю 4 н/о н/о +16.7 -1.9 28 +16 +16 1027.7 1016.3
10 10.09 Ю 4 н/о н/о +11.4 -3.1 36 +10 +10 1029.0 1017.6
11 10.09 Ю 4 н/о н/о +11.0 -2.4 39 +9 +9 1029.4 1018.0
13 10.09 Ю 3 н/о н/о +8.4 -3.1 44 +7 +7 1029.8 1018.4
14 10.09 ЮЗ 3 н/о н/о +7.3 -3.8 45 +5 +5 1029.9 1018.5 +19.8
16 10.09 Ю 2 н/о н/о +4.2 -4.8 52 +2 +2 1029.3 1017.9
17 10.09 штиль 0 н/о н/о +3.7 -4.2 56 +3 +3 1028.7 1017.3
19 10.09 ЮЗ 4 н/о н/о +4.1 -3.2 59 0 0 1029.3 1017.9
20 10.09 ЮЗ 3 н/о н/о +3.3 -3.9 59 -0 -0 1029.9 1018.5
22 10.09 ЮЗ 2 н/о н/о +8.7 -2.6 45 +8 +8 1031.8 1020.4
23 10.09 В 3 н/о н/о +14.1 -1.1 35 +14 +14 1032.2 1020.8
01 11.09 СВ 3 н/о н/о +17.8 -0.9 28 +18 +18 1031.6 1020.2
02 11.09 В 3 н/о н/о +18.8 -1.6 25 +19 +19 1031.0 1019.6 +1.9
04 11.09 ЮЗ 2 н/о н/о +21.4 -2.5 20 +21 +21 комфорт 1029.0 1017.6
05 11.09 З 2 н/о н/о +22.4 -4.6 16 +21 +21 комфорт 1028.2 1016.8
07 11.09 СЗ 2 н/о н/о +22.2 -5.6 15 +21 +21 комфорт 1027.5 1016.1
08 11.09 СВ 2 н/о н/о +20.4 -5.4 17 +21 +21 комфорт 1027.7 1016.3
10 11.09 В 2 н/о н/о +10.9 -6.0 30 +11 +11 1028.3 1016.9
11 11.09 СВ 3 н/о н/о +9.2 -7.4 30 +8 +8 1028.4 1017.0
13 11.09 СВ 3 н/о н/о +7.8 -6.7 35 +6 +6 1027.9 1016.5
14 11.09 СВ 3 н/о н/о +9.1 -6.7 32 +7 +7 1027.6 1016.2 +23.0
16 11.09 С 4 н/о н/о +8.5 -6.4 34 +6 +6 1027.1 1015.7
17 11.09 З 3 н/о н/о +6.0 -7.9 36 +4 +4 1026.4 1015.0
19 11.09 С 5 н/о н/о +6.8 -5.2 42 +4 +4 1025.5 1014.1
20 11.09 С 4 н/о н/о +7.6 -6.1 37 +5 +5 1025.7 1014.3
22 11.09 С 4 н/о н/о +14.8 -5.0 25 +14 +14 1026.7 1015.3
23 11.09 С 5 н/о н/о +19.0 -4.4 20 +19 +19 1026.8 1015.4
01 12.09 СЗ 8 н/о н/о +23.3 -6.6 13 +21 +21 комфорт 1025.8 1014.4
02 12.09 СЗ 7 н/о н/о +24.8 -7.6 11 +22 +22 комфорт 1025.2 1013.8 +2.4
04 12.09 СЗ 8 н/о н/о +26.9 -8.6 9 +24 +24 комфорт 1022.4 1011.1
05 12.09 З 8 н/о н/о +27.5 -9.7 8 +24 +24 комфорт 1021.6 1010.3
07 12.09 З 7 н/о н/о +27.0 -10.0 8 +24 +24 комфорт 1021.2 1009.9
08 12.09 З 5 н/о н/о +25.2 -9.9 9 +22 +22 комфорт 1021.3 1010.0
10 12.09 СЗ 5 н/о н/о +18.4 -10.5 13 +18 +18 1022.1 1010.8
11 12.09 СЗ 4 н/о н/о +17.3 -11.3 13 +17 +17 1022.3 1011.0
13 12.09 З 3 н/о н/о +13.5 -12.6 15 +13 +13 1023.3 1012.0
14 12.09 ЮЗ 3 н/о н/о +12.6 -11.8 17 +12 +12 1023.4 1012.1 +28.1
16 12.09 ЮЗ 2 н/о н/о +10.8 -8.4 25 +10 +10 1023.4 1012.1
17 12.09 ЮЗ 3 н/о н/о +9.6 -7.1 30 +8 +8 1023.2 1011.9
19 12.09 ЮЗ 3 н/о н/о +8.3 -6.2 35 +6 +6 1024.0 1012.7
20 12.09 ЮЗ 4 н/о н/о +7.8 -4.3 42 +5 +5 1024.7 1013.3
22 12.09 Ю 3 н/о н/о +14.3 +0.9 40 +14 +14 1026.1 1014.7
23 12.09 В 3 н/о н/о +18.2 +4.4 40 +19 +19 1026.3 1014.9
01 13.09 ЮВ 2 н/о н/о +21.5 +3.7 31 +22 +22 комфорт 1025.9 1014.5
02 13.09 Ю 4 н/о н/о +23.5 +3.4 27 +23 +23 комфорт 1025.1 1013.7 +7.4
04 13.09 ЮЗ 5 н/о н/о +25.1 +2.5 23 +24 +24 комфорт 1023.2 1011.9
05 13.09 Ю 5 н/о н/о +26.2 +2.2 21 +25 +25 комфорт 1022.7 1011.4
07 13.09 Ю 5 н/о н/о +25.2 +1.3 21 +24 +24 комфорт 1022.9 1011.6
08 13.09 Ю 5 н/о н/о +23.4 +1.7 24 +23 +23 комфорт 1023.3 1012.0
10 13.09 Ю 3 н/о н/о +18.3 +0.9 31 +19 +19 1024.6 1013.2
11 13.09 Ю 4 н/о н/о +17.7 +1.2 33 +18 +18 1025.0 1013.6
13 13.09 Ю 5 н/о н/о +17.5 +1.1 33 +17 +17 1025.7 1014.3
14 13.09 Ю 4 н/о н/о +16.4 +0.9 35 +16 +16 1025.7 1014.3 +26.8
16 13.09 Ю 4 н/о н/о +12.1 +0.2 44 +11 +11 1025.5 1014.1
17 13.09 Ю 4 н/о н/о +10.9 +0.6 49 +9 +9 1025.1 1013.7
19 13.09 Ю 3 н/о н/о +9.9 -0.6 48 +8 +8 1025.2 1013.8
20 13.09 ЮЗ 4 н/о н/о +7.3 -1.1 55 +5 +5 1025.8 1014.4
22 13.09 Ю 4 н/о н/о +14.3 +1.2 41 +13 +13 1027.2 1015.8
23 13.09 ЮВ 6 н/о н/о +16.6 +3.7 42 +16 +16 1027.6 1016.2
01 14.09 ЮВ 4 н/о н/о +21.1 +4.6 34 +21 +21 комфорт 1027.2 1015.8
02 14.09 Ю 4 н/о н/о +22.7 +5.6 33 +23 +23 комфорт 1026.4 1015.0 +7.3
04 14.09 Ю 4 н/о н/о +25.4 +4.0 25 +25 +25 комфорт 1024.6 1013.2
05 14.09 Ю 5 н/о н/о +26.1 +1.4 20 +25 +25 комфорт 1023.6 1012.3
07 14.09 ЮВ 3 н/о н/о +26.0 -1.7 16 +24 +24 комфорт 1023.4 1012.1
08 14.09 Ю 3 н/о н/о +24.3 -3.1 16 +22 +22 комфорт 1024.2 1012.9
10 14.09 Ю 3 н/о н/о +14.4 -3.9 28 +14 +14 1024.0 1012.7
11 14.09 ЮЗ 3 н/о н/о +16.5 -1.1 30 +16 +16 1024.6 1013.2
13 14.09 Ю 3 н/о н/о +9.4 -3.8 39 +8 +8 1024.4 1013.0
14 14.09 ЮВ 4 н/о н/о +12.2 -2.0 37 +11 +11 1023.9 1012.6 +27.2
16 14.09 Ю 2 н/о н/о +7.3 -2.7 49 +6 +6 1023.3 1012.0
17 14.09 штиль 0 н/о н/о +5.9 -5.1 45 +6 +6 1022.9 1011.6
19 14.09 СВ 4 н/о н/о +10.4 -2.3 41 +9 +9 1022.7 1011.4
20 14.09 СВ 5 н/о н/о +11.2 -3.7 35 +9 +9 1022.9 1011.6
22 14.09 СВ 5 н/о н/о +18.2 -4.5 21 +18 +18 1023.7 1012.4
23 14.09 СВ 4 н/о н/о +21.9 -5.9 15 +21 +21 комфорт 1024.0 1012.7
01 15.09 С 6 н/о н/о +26.1 -4.4 13 +24 +24 комфорт 1022.5 1011.2
02 15.09 С 6 н/о н/о +28.5 -4.8 11 +25 +25 комфорт 1021.4 1010.1 +5.6
04 15.09 С 5 н/о н/о +30.4 -7.5 8 +26 +26 жарко 1019.5 1008.2
05 15.09 СЗ 6 н/о н/о +31.0 -8.8 7 +27 +27 жарко 1018.8 1007.5
07 15.09 С 6 н/о н/о +30.0 -9.5 7 +26 +26 жарко 1018.3 1007.0
08 15.09 СЗ 5 н/о н/о +27.7 -11.2 7 +24 +24 комфорт 1018.4 1007.1
10 15.09 С 4 н/о н/о +21.9 -9.9 11 +20 +20 1018.8 1007.5
11 15.09 С 4 н/о н/о +20.8 -9.6 12 +20 +20 1018.8 1007.5
13 15.09 С 4 н/о н/о +20.1 -9.1 13 +20 +20 1018.5 1007.2
14 15.09 С 5 н/о н/о +19.0 -9.1 14 +19 +19 1018.4 1007.1 +31.4
16 15.09 С 5 н/о н/о +17.3 -9.5 15 +17 +17 1017.1 1005.8
17 15.09 С 5 н/о н/о +17.8 -9.1 15 +17 +17 1016.2 1004.9
19 15.09 С 6 н/о н/о +18.2 -8.8 15 +18 +18 1015.1 1003.9
20 15.09 С 4 н/о н/о +16.9 -9.0 16 +17 +17 1016.1 1004.8
22 15.09 СЗ 5 н/о н/о +20.7 -7.7 14 +20 +20 1016.7 1005.4
23 15.09 СЗ 7 н/о н/о +24.3 -6.9 12 +22 +22 комфорт 1017.1 1005.8
01 16.09 СЗ 7 н/о н/о +30.5 -5.9 9 +27 +27 жарко 1016.1 1004.8
02 16.09 ЮЗ 7 н/о н/о +29.7 -5.1 10 +26 +26 жарко 1015.7 1004.4 +16.8
04 16.09 ЮЗ 8 н/о н/о +26.4 -2.3 15 +24 +24 комфорт 1015.2 1004.0
05 16.09 ЮЗ 8 н/о н/о +27.0 -0.1 17 +25 +25 комфорт 1014.8 1003.6
07 16.09 Ю 9 н/о н/о +23.0 +5.9 33 +23 +23 комфорт 1015.9 1004.6
08 16.09 Ю 9 н/о н/о +21.4 +6.9 39 +22 +22 комфорт 1016.9 1005.6
10 16.09 Ю 9 н/о н/о +17.4 +4.4 42 +16 +16 1018.9 1007.6
11 16.09 Ю 8 н/о н/о +16.6 +4.6 45 +15 +15 1019.4 1008.1
13 16.09 Ю 9 н/о н/о +12.0 +5.6 65 +9 +9 1021.1 1009.8
14 16.09 Ю 8 н/о н/о +10.7 +5.3 69 +7 +7 1020.5 1009.2 +31.3
16 16.09 Ю 7 н/о н/о +9.1 +7.1 87 +5 +5 1021.3 1010.0
17 16.09 Ю 8 н/о {туман} н/о +8.6 +5.9 83 +4 +4 1021.4 1010.1
19 16.09 Ю 5 н/о н/о +6.7 +3.3 79 +3 +3 1022.2 1010.9
20 16.09 Ю 6 н/о н/о +6.1 +1.8 74 +2 +2 1023.2 1011.9
22 16.09 Ю 7 н/о н/о +7.6 +0.8 62 +3 +3 1024.7 1013.3
23 16.09 Ю 8 н/о н/о +9.2 -1.2 48 +5 +5 1025.1 1013.7
01 17.09 Ю 9 н/о н/о +12.2 -6.2 27 +9 +9 1024.7 1013.3
02 17.09 Ю 8 н/о н/о +13.2 -4.4 29 +11 +11 1023.9 1012.6 +5.7
05 17.09 Ю 8 н/о н/о +16.7 -4.5 23 +15 +15 1022.4 1011.1

 

Местоположение метеостанции Уилкания (Новый Южный Уэльс, Австралия): широта -31.52 долгота 143.38 высота над уровнем моря 95 м.

В архиве по умолчанию представлена погода в Уилкании за последнюю неделю. Архивные данные за месяц целиком и за предыдущие месяцы, начиная с января 2011 года, Вы можете получить, выбрав интересующий диапазон дат из раскрывающегося списка и нажав кнопку "Ввод!".


*Определитесь, кто Вы:
робот инопланетянин человек

Внимание! Время в таблицах - всемирное. Для получения местного времени необходимо прибавить поправку, которая равна 10 ч.

Смотрите также архив погоды в соседних городах и на ближайших метеорологических станциях:

Погода в Уафт Клифс (Новый Южный Уэльс, Австралия) (80 км)
Погода в Фоулерс Гэп (Новый Южный Уэльс, Австралия) (167 км)
Погода в Айванхо (Новый Южный Уэльс, Австралия) (175 км)
Погода в Брокен-Хилл аэропорту (Новый Южный Уэльс, Австралия) (189 км)
Погода в Кобар аэропорту (Новый Южный Уэльс, Австралия) (229 км)
Погода в Кобаре (Новый Южный Уэльс, Австралия) (232 км)
Погода в Тибообере (Новый Южный Уэльс, Австралия) (263 км)
Погода в Бурке (Новый Южный Уэльс, Австралия) (296 км)
Погода в Милдьюре (Новый Южный Уэльс, Австралия) (325 км)
Погода в Хее (Новый Южный Уэльс, Австралия) (361 км)

Пояснения к столбцам:

Ветер - указаны скорость ветра в м/с - средняя за 10 мин, порывы в срок и между сроками (в фигурных скобках) и направление, откуда дует ветер: С - северный, СВ - северо-восточный, В - восточный, ЮВ - юго-восточный, Ю - южный, ЮЗ - юго-западный, З - западный, СЗ - северо-западный.
Видимость - горизонтальная дальность видимости в метрах или километрах. При видимости от 1 до 10 км при отсутствии осадков обычно наблюдается дымка, при ухудшении видимости до 1 км и менее - туман. В сухую погоду видимость может ухудшаться дымом, пылью или мглою.
Явления - указаны атмосферные явления, наблюдавшиеся в срок или в последний час перед сроком; фигурными скобками обозначены явления, наблюдавшиеся между сроками (за 1-3 часа до срока); квадратными скобками обозначены град или гололедные отложения с указанием их диаметра в мм.
Облачность - указаны через наклонную черту общая и нижняя облачность в баллах и высота нижней границы облаков в метрах; квадратными скобками обозначены формы облаков: Ci - перистые, Cs - перисто-слоистые, Cc - перисто-кучевые, Ac - высококучевые, As - высокослоистые, Sc - слоисто-кучевые, Ns - слоисто-дождевые, Cu - кучевые, Cb - кучево-дождевые. Подробнее классификацию облаков см. в Атласе облаков (PDF).
T - Температура воздуха - температура, измеренная на высоте 2 м над землей.
Td - Температура точки росы - температура, при понижении до которой содержащийся в воздухе водяной пар достигнет насыщения.
f - Относительная влажность воздуха - влажноcть воздуха, измеренная на высоте 2 м над землей.
Te - Эффективная температура - температура, которую ощущает одетый по сезону человек в тени. Характеристика душности погоды. При расчете учитывается влияние влажности воздуха и скорости ветра на теплоощущения человека.
Tes - Эффективная температура на солнце - температура, которую ощущает человек, с поправкой на солнечный нагрев. Характеристика знойности погоды. Зависит от высоты солнца над горизонтом, облачности и скорости ветра. Ночью, в пасмурную погоду, а также при ветре 12 м/с и более поправка равна нулю.
P - Атмосферное давление - приведенное к уровню моря атмосферное давление.
Po - Атмосферное давление - измеренное на уровне метеостанции атмосферное давление.
Tmin - Минимальная температура - минимум температуры воздуха на высоте 2 м над землей.
Tmax - Максимальная температура - максимум температуры воздуха на высоте 2 м над землей.
R - Количество осадков - Количество выпавших осадков за период времени, мм. При наведении курсора мыши на число - период времени, за который выпало указанное количество осадков.
R24 - Количество осадков - Количество выпавших осадков за 24 часа, мм.
S - Снежный покров - Высота снежного покрова, см. При наведении курсора мыши на число - состояние снежного покрова и степень покрытия местности в баллах.